Flushing, NY

2:04 AM EDT on August 31, 2016 (GMT -0400)
La Guardia

Weather History for KLGA - January, 2014

Change the Weather History Date:

Saturday, January 25, 2014

  Actual Average Record
Temperature  
Mean Temperature 23 °F 33 °F  
Max Temperature 27 °F 39 °F 57 °F (1967)
Min Temperature 19 °F 26 °F 2 °F (1945)
Degree Days  
Heating Degree Days 42 32  
Month to date heating degree days 877 796  
Since 1 July heating degree days 2484 2402  
Cooling Degree Days 0 0  
Month to date cooling degree days 0 0  
Year to date cooling degree days 0 0  
Moisture  
Dew Point 11 °F    
Average Humidity 61    
Maximum Humidity 81    
Minimum Humidity 41    
Precipitation  
Precipitation 0.02 in 0.10 in 1.43 in (1958)
Month to date precipitation 2.31 2.58  
Year to date precipitation 2.31 2.58  
Snow  
Snow 0.20 in 0.20 in 5.80 in (2000)
Month to date snowfall 16.3 5.8  
Since 1 July snowfall 24.1 11.3  
Snow Depth 4.00 in    
Sea Level Pressure  
Sea Level Pressure 29.64 in    
Wind  
Wind Speed 14 mph (SW)    
Max Wind Speed 24 mph    
Max Gust Speed 32 mph    
Visibility 8 miles    
Events Snow    
T = Trace of Precipitation, MM = Missing Value Source: NWS Daily Summary

Daily Weather History Graph

Daily Weather History Graph

Search for Another Location

Airport or City:

Trip Planner

Search our weather history database for the weather conditions in past years. The results will help you decide how hot, cold, wet, or windy it might be!

Date:

Astronomy

Jan. 25, 2014 Rise Set
Actual Time 7:11 AM EST 5:04 PM EST
Civil Twilight 6:42 AM EST 5:33 PM EST
Nautical Twilight 6:09 AM EST 6:07 PM EST
Astronomical Twilight 5:36 AM EST 6:39 PM EST
Moon 1:40 AM EST (1/25) 12:03 PM EST (1/25)
Length of Visible Light 10h 51m
Length of Day
9h 52m
Waning Crescent, 34% of the Moon is Illuminated
Jan 25
Waning Crescent
Jan 30
New
Feb 6
First Quarter
Feb 14
Full
Feb 22
Last Quarter

Hourly Weather History & Observations

Time (EST) Temp. Windchill Dew Point Humidity Pressure Visibility Wind Dir Wind Speed Gust Speed Precip Events Conditions
12:51 AM 19.0 °F 5.0 °F 1.0 °F 46% 30.06 in 10.0 mi SSW 15.0 mph 23.0 mph N/A   Overcast
1:51 AM 19.0 °F 5.0 °F 1.0 °F 46% 30.03 in 10.0 mi SSW 15.0 mph 23.0 mph N/A   Overcast
2:51 AM 19.9 °F 3.5 °F 1.9 °F 46% 29.99 in 10.0 mi SSW 21.9 mph 28.8 mph N/A   Overcast
3:51 AM 19.9 °F 5.7 °F 3.0 °F 48% 29.94 in 10.0 mi SSW 16.1 mph 26.5 mph N/A   Mostly Cloudy
4:51 AM 21.0 °F 8.6 °F 1.9 °F 44% 29.91 in 10.0 mi SSW 12.7 mph 25.3 mph N/A   Scattered Clouds
5:51 AM 21.0 °F 6.6 °F 3.9 °F 48% 29.86 in 10.0 mi SSW 17.3 mph 24.2 mph N/A   Mostly Cloudy
6:51 AM 21.9 °F 8.7 °F 3.0 °F 44% 29.84 in 10.0 mi SSW 15.0 mph 23.0 mph N/A   Mostly Cloudy
7:51 AM 21.9 °F 9.8 °F 3.9 °F 46% 29.81 in 10.0 mi SSW 12.7 mph 21.9 mph N/A   Mostly Cloudy
8:51 AM 23.0 °F 10.1 °F 6.1 °F 48% 29.77 in 10.0 mi SSW 15.0 mph 23.0 mph N/A   Mostly Cloudy
9:51 AM 25.0 °F 11.3 °F 6.1 °F 45% 29.74 in 10.0 mi SSW 18.4 mph 24.2 mph N/A   Overcast
10:51 AM 26.1 °F 16.2 °F 7.0 °F 44% 29.70 in 10.0 mi SSW 10.4 mph 21.9 mph N/A   Overcast
11:51 AM 27.0 °F 16.7 °F 8.1 °F 45% 29.63 in 10.0 mi SW 11.5 mph 20.7 mph N/A   Overcast
12:51 PM 27.0 °F 14.7 °F 7.0 °F 43% 29.57 in 10.0 mi SW 16.1 mph 26.5 mph N/A   Overcast
1:51 PM 27.0 °F 15.6 °F 14.0 °F 58% 29.53 in 6.0 mi SSW 13.8 mph 24.2 mph 0.00 in Snow Light Snow
2:11 PM 26.6 °F 17.5 °F 17.6 °F 69% 29.51 in 1.5 mi SW 9.2 mph - 0.00 in Snow Light Snow
2:43 PM 26.6 °F 18.2 °F 19.4 °F 74% 29.50 in 1.5 mi SW 8.1 mph - 0.00 in Snow Light Snow
2:51 PM 26.1 °F 14.0 °F 19.0 °F 75% 29.50 in 2.0 mi SSW 15.0 mph 18.4 mph 0.00 in Snow Light Snow
3:19 PM 26.6 °F 15.7 °F 19.4 °F 74% 29.49 in 2.0 mi SW 12.7 mph 19.6 mph 0.00 in Snow Light Snow
3:51 PM 26.1 °F 14.0 °F 19.9 °F 78% 29.48 in 1.0 mi SW 15.0 mph 21.9 mph 0.00 in Snow Light Snow
4:32 PM 24.8 °F 12.9 °F 21.2 °F 86% 29.46 in 0.8 mi WSW 13.8 mph 19.6 mph 0.01 in Snow Light Snow
4:51 PM 25.0 °F 13.6 °F 19.0 °F 78% 29.46 in 0.8 mi SW 12.7 mph 24.2 mph 0.01 in Snow Light Snow
5:27 PM 24.8 °F 16.1 °F 19.4 °F 80% 29.46 in 1.0 mi SW 8.1 mph - 0.01 in Snow Light Snow
5:51 PM 25.0 °F 13.6 °F 19.9 °F 81% 29.47 in 1.0 mi SW 12.7 mph 17.3 mph 0.01 in Snow Light Snow
6:20 PM 24.8 °F 11.5 °F 17.6 °F 74% 29.47 in 5.0 mi SW 17.3 mph 23.0 mph 0.00 in   Haze
6:51 PM 25.0 °F 12.6 °F 17.1 °F 72% 29.48 in 10.0 mi WSW 15.0 mph 21.9 mph 0.00 in   Mostly Cloudy
7:51 PM 25.0 °F 13.6 °F 17.1 °F 72% 29.48 in 10.0 mi WSW 12.7 mph 24.2 mph N/A   Mostly Cloudy
8:14 PM 24.8 °F 12.4 °F 15.8 °F 69% 29.47 in 10.0 mi WSW 15.0 mph - N/A   Mostly Cloudy
8:51 PM 25.0 °F 13.1 °F 16.0 °F 69% 29.47 in 10.0 mi WSW 13.8 mph 23.0 mph N/A   Mostly Cloudy
9:51 PM 25.0 °F 14.2 °F 15.1 °F 66% 29.47 in 10.0 mi WSW 11.5 mph - N/A   Scattered Clouds
10:51 PM 25.0 °F 14.8 °F 15.1 °F 66% 29.47 in 10.0 mi WSW 10.4 mph 19.6 mph N/A   Scattered Clouds
11:51 PM 25.0 °F 13.1 °F 15.1 °F 66% 29.47 in 10.0 mi WSW 13.8 mph 18.4 mph N/A   Scattered Clouds